Flag for Micronesia Weather past 2 weeks in Tofol, Kosrae, Micronesia

Now
79 °F

Light rain. Mostly cloudy.


Feels Like: 83 °F
Forecast: 78 / 86 °F
Wind: 5 mph from Southeast

Location: Pohnpei

Current Time: Jul 22, 2014 at 11:10:35 PM

Latest Report: Jul 22, 2014 at 9:50 PM


Visibility: 15 mi

Pressure: 29.83 "Hg

Humidity: 92%

Dew point: 76 °F

Location of TofolLocation

Historic Weather in Tofol — Graph

°F

Tofol temperature yesterday

Maximum temperature yesterday: 89 °F (at 2:55 PM)
Minimum temperature yesterday: 76 °F (at 3:53 AM)
Average temperature yesterday: 83 °F

Past Weeks' High & Low Weather Summary

 TemperatureHumidityPressure
High90 °F (Jul 8, 11:54 AM)99% (Jul 13, 5:52 AM)29.94 "Hg (Jul 13, 5:52 AM)
Low74 °F (Jul 9, 4:52 AM)66% (Jul 19, 3:55 PM)29.72 "Hg (Jul 8, 3:56 PM)
Average80 °F88%29.82 "Hg
* Reported Jul 7 9:55 PM — Jul 22 9:50 PM, Tofol, Weather by CustomWeather, © 2014

Note: Actual official high and low records may vary slightly from our data, if they occured in-between our weather recording intervals... More about our weather records

Advertising

Tofol weather history for previous 24 hours

 ConditionsComfort  
Time TempWeatherWind HumidityBarometerVisibility
9:50 PM
Jul 22
79 °FLight rain. Mostly cloudy.5 mph92%29.83 "Hg15 mi
8:53 PM80 °FMostly cloudy.3 mph92%29.83 "Hg15 mi
7:53 PM81 °FMostly cloudy.3 mph92%29.82 "Hg15 mi
6:53 PM82 °FMostly cloudy.5 mph88%29.80 "Hg15 mi
5:52 PM83 °FBroken clouds.5 mph84%29.77 "Hg15 mi
4:54 PM83 °FMore clouds than sun.3 mph84%29.76 "Hg15 mi
3:53 PM82 °FCloudy.5 mph87%29.76 "Hg15 mi
2:53 PM83 °FMostly cloudy.3 mph84%29.77 "Hg15 mi
12:56 PM89 °FBroken clouds.9 mph70%29.78 "Hg15 mi
11:53 AM87 °FMore clouds than sun.7 mph75%29.80 "Hg15 mi
10:53 AM88 °FMore clouds than sun.7 mph70%29.82 "Hg15 mi
9:53 AM86 °FMostly cloudy.7 mph77%29.83 "Hg15 mi
8:51 AM85 °FMore clouds than sun.7 mph81%29.84 "Hg15 mi
7:50 AM81 °FBroken clouds.3 mph96%29.83 "Hg15 mi
6:50 AM76 °FBroken clouds.3 mph97%29.81 "Hg15 mi
5:50 AM76 °FPartly cloudy.3 mph98%29.80 "Hg15 mi
4:50 AM77 °FPartly cloudy.3 mph96%29.79 "Hg15 mi
3:50 AM77 °FPartly cloudy.3 mph97%29.79 "Hg15 mi
2:50 AM77 °FPassing clouds.3 mph95%29.80 "Hg15 mi
1:50 AM78 °FPartly cloudy.3 mph95%29.82 "Hg15 mi
12:50 AM78 °FPassing clouds.3 mph91%29.83 "Hg15 mi
11:54 PM
Jul 21
79 °FOvercast.3 mph96%29.84 "Hg15 mi
Weather by CustomWeather, © 2014

See weather overviewHow to use our weather pages